New Roads False River Regiona, LA

12:38 AM CDT on October 21, 2019 (GMT -0500)
False River

Weather History for KHZR - August, 2019

Change the Weather History Date:

Sunday, August 18, 2019

  Actual Average (WUND) Record (WUND)
Temperature  
Mean Temperature 83 °F -  
Max Temperature 91 °F - - (-1)
Min Temperature 75 °F - - (-1)
Cooling Degree Days 18    
Growing Degree Days 33 (Base 50)    
Moisture  
Dew Point 75 °F    
Average Humidity 78    
Maximum Humidity 100    
Minimum Humidity 55    
Precipitation  
Precipitation 0.00 in - - ()
Sea Level Pressure  
Sea Level Pressure 29.97 in    
Wind  
Wind Speed 4 mph (South)    
Max Wind Speed 15 mph    
Max Gust Speed 24 mph    
Visibility 10 miles    
Events      
Averages and records for this station are not official NWS values.
T = Trace of Precipitation, MM = Missing Value Source: NWS Daily Summary

Daily Weather History Graph

Daily Weather History Graph

Search for Another Location

Airport or City:

Astronomy

Aug. 18, 2019 Rise Set
Actual Time 6:34 AM CDT 7:45 PM CDT
Civil Twilight 6:08 AM CDT 8:10 PM CDT
Nautical Twilight 5:38 AM CDT 8:40 PM CDT
Astronomical Twilight 5:07 AM CDT 9:11 PM CDT
Moon 9:50 PM CDT (8/18) 9:10 AM CDT (8/18)
Length of Visible Light 14h 01m
Length of Day
13h 11m
Waning Gibbous, 91% of the Moon is Illuminated
Aug 18
Waning Gibbous
Aug 23
Last Quarter
Aug 30
New
Sep 5
First Quarter
Sep 13
Full

Hourly Weather History & Observations

Time (CDT) Temp. Heat Index Dew Point Humidity Pressure Visibility Wind Dir Wind Speed Gust Speed Precip Events Conditions
12:16 AM 78.8 °F - 75.2 °F 89% 29.95 in 10.0 mi South 3.5 mph - N/A   Clear
12:38 AM 78.8 °F - 75.2 °F 89% 29.95 in 10.0 mi SSE 3.5 mph - N/A   Clear
1:16 AM 78.8 °F - 75.2 °F 89% 29.95 in 10.0 mi Calm Calm - N/A   Clear
1:36 AM 78.8 °F - 75.2 °F 89% 29.94 in 10.0 mi Calm Calm - N/A   Clear
1:58 AM 78.8 °F - 77.0 °F 94% 29.94 in 10.0 mi SSE 3.5 mph - N/A   Clear
2:38 AM 78.8 °F - 77.0 °F 94% 29.94 in 10.0 mi Calm Calm - N/A   Clear
2:58 AM 78.8 °F - 77.0 °F 94% 29.94 in 10.0 mi SSE 4.6 mph - N/A   Clear
3:16 AM 77.0 °F - 77.0 °F 100% 29.94 in 10.0 mi Calm Calm - N/A   Clear
3:36 AM 77.0 °F - 75.2 °F 94% 29.94 in 10.0 mi Calm Calm - N/A   Clear
3:56 AM 75.2 °F - 75.2 °F 100% 29.94 in 10.0 mi Calm Calm - N/A   Clear
4:17 AM 75.2 °F - 75.2 °F 100% 29.94 in 10.0 mi Calm Calm - N/A   Clear
4:56 AM 75.2 °F - 75.2 °F 100% 29.94 in 10.0 mi Calm Calm - N/A   Clear
5:36 AM 75.2 °F - 73.4 °F 94% 29.95 in 7.0 mi Calm Calm - N/A   Clear
6:16 AM 75.2 °F - 75.2 °F 100% 29.96 in 10.0 mi Calm Calm - N/A   Overcast
6:36 AM 75.2 °F - 75.2 °F 100% 29.97 in 7.0 mi Calm Calm - N/A   Overcast
6:56 AM 77.0 °F - 77.0 °F 100% 29.97 in 10.0 mi Calm Calm - N/A   Overcast
7:16 AM 78.8 °F - 77.0 °F 94% 29.97 in 10.0 mi Calm Calm - N/A   Mostly Cloudy
7:36 AM 78.8 °F - 78.8 °F 100% 29.99 in 10.0 mi South 8.1 mph - N/A   Mostly Cloudy
7:58 AM 78.8 °F - 75.2 °F 89% 29.99 in 10.0 mi South 4.6 mph - N/A   Scattered Clouds
8:18 AM 80.6 °F 85.4 °F 73.4 °F 79% 30.00 in 10.0 mi South 4.6 mph - N/A   Clear
8:57 AM 82.4 °F 88.2 °F 73.4 °F 74% 30.00 in 10.0 mi Calm Calm - N/A   Clear
9:16 AM 84.2 °F 90.9 °F 73.4 °F 70% 30.00 in 10.0 mi South 4.6 mph - N/A   Clear
9:37 AM 84.2 °F 92.3 °F 75.2 °F 74% 30.00 in 10.0 mi South 4.6 mph - N/A   Clear
9:56 AM 84.2 °F 92.3 °F 75.2 °F 74% 30.00 in 10.0 mi South 3.5 mph - N/A   Clear
10:16 AM 86.0 °F 95.1 °F 75.2 °F 70% 30.00 in 10.0 mi SSW 5.8 mph - N/A   Clear
10:36 AM 87.8 °F 97.6 °F 75.2 °F 66% 30.00 in 10.0 mi Calm Calm - N/A   Scattered Clouds
10:56 AM 87.8 °F 97.6 °F 75.2 °F 66% 30.00 in 10.0 mi WSW 3.5 mph - N/A   Mostly Cloudy
11:19 AM 89.6 °F 99.8 °F 75.2 °F 62% 30.00 in 10.0 mi West 5.8 mph - N/A   Mostly Cloudy
11:37 AM 89.6 °F 99.8 °F 75.2 °F 62% 30.00 in 10.0 mi WSW 5.8 mph - N/A   Scattered Clouds
11:56 AM 89.6 °F 99.8 °F 75.2 °F 62% 30.00 in 10.0 mi WSW 3.5 mph - N/A   Scattered Clouds
12:16 PM 89.6 °F 98.2 °F 73.4 °F 59% 30.00 in 10.0 mi Calm Calm - N/A   Scattered Clouds
12:36 PM 89.6 °F 98.2 °F 73.4 °F 59% 29.99 in 10.0 mi South 4.6 mph - N/A   Mostly Cloudy
12:56 PM 91.4 °F 100.1 °F 73.4 °F 55% 29.99 in 10.0 mi West 8.1 mph - N/A   Mostly Cloudy
1:16 PM 91.4 °F 100.1 °F 73.4 °F 55% 29.98 in 10.0 mi SSW 5.8 mph - N/A   Scattered Clouds
1:36 PM 91.4 °F 100.1 °F 73.4 °F 55% 29.97 in 10.0 mi SSW 8.1 mph - N/A   Scattered Clouds
1:56 PM 87.8 °F 95.6 °F 73.4 °F 62% 29.98 in 10.0 mi SSW 15.0 mph 24.2 mph N/A   Mostly Cloudy
2:18 PM 87.8 °F 95.6 °F 73.4 °F 62% 29.97 in 10.0 mi South 10.4 mph - N/A   Scattered Clouds
2:36 PM 89.6 °F 99.8 °F 75.2 °F 62% 29.96 in 10.0 mi SSW 11.5 mph - N/A   Clear
2:56 PM 89.6 °F 99.8 °F 75.2 °F 62% - 10.0 mi SSW 6.9 mph - N/A   Clear
3:36 PM 89.6 °F 99.8 °F 75.2 °F 62% 29.96 in 10.0 mi SW 5.8 mph - N/A   Clear
3:56 PM 91.4 °F 102.5 °F 75.2 °F 59% 29.96 in 10.0 mi South 9.2 mph - N/A   Scattered Clouds
4:16 PM 89.6 °F 99.8 °F 75.2 °F 62% 29.96 in 10.0 mi SSW 6.9 mph - N/A   Scattered Clouds
4:37 PM 91.4 °F 102.5 °F 75.2 °F 59% 29.95 in 10.0 mi SW 10.4 mph - N/A   Mostly Cloudy
4:56 PM 89.6 °F 99.8 °F 75.2 °F 62% 29.95 in 10.0 mi South 9.2 mph - N/A   Scattered Clouds
5:18 PM 87.8 °F 97.6 °F 75.2 °F 66% 29.96 in 10.0 mi SSW 5.8 mph - N/A   Scattered Clouds
5:39 PM 87.8 °F 97.6 °F 75.2 °F 66% 29.96 in 10.0 mi SSW 4.6 mph - N/A   Clear
5:56 PM 87.8 °F 99.7 °F 77.0 °F 70% 29.95 in 10.0 mi South 8.1 mph - N/A   Clear
6:16 PM 87.8 °F 97.6 °F 75.2 °F 66% 29.95 in 10.0 mi SSW 9.2 mph - N/A   Scattered Clouds
6:37 PM 86.0 °F 95.1 °F 75.2 °F 70% 29.95 in 10.0 mi South 6.9 mph - N/A   Clear
7:16 PM 84.2 °F 92.3 °F 75.2 °F 74% 29.97 in 10.0 mi South 8.1 mph - N/A   Scattered Clouds
7:36 PM 82.4 °F 89.5 °F 75.2 °F 79% 29.97 in 10.0 mi South 6.9 mph - N/A   Scattered Clouds
7:56 PM 82.4 °F 89.5 °F 75.2 °F 79% 29.97 in 10.0 mi South 5.8 mph - N/A   Scattered Clouds
8:16 PM 82.4 °F 89.5 °F 75.2 °F 79% 29.97 in 10.0 mi South 4.6 mph - N/A   Clear
8:36 PM 82.4 °F 89.5 °F 75.2 °F 79% 29.97 in 10.0 mi South 4.6 mph - N/A   Clear
8:57 PM 80.6 °F 86.2 °F 75.2 °F 84% 29.98 in 10.0 mi South 6.9 mph - N/A   Clear
9:36 PM 80.6 °F 86.2 °F 75.2 °F 84% 29.98 in 10.0 mi SE 8.1 mph - N/A   Clear
9:56 PM 78.8 °F - 75.2 °F 89% 29.99 in 10.0 mi ESE 6.9 mph - N/A   Clear
10:16 PM 78.8 °F - 75.2 °F 89% 29.99 in 10.0 mi SE 6.9 mph - N/A   Clear
10:56 PM 78.8 °F - 75.2 °F 89% 29.98 in 10.0 mi South 4.6 mph - N/A   Clear
11:16 PM 78.8 °F - 75.2 °F 89% 29.98 in 10.0 mi South 4.6 mph - N/A   Clear
11:36 PM 78.8 °F - 75.2 °F 89% 29.98 in 10.0 mi South 3.5 mph - N/A   Clear
11:56 PM 78.8 °F - 75.2 °F 89% 29.98 in 10.0 mi Calm Calm - N/A   Clear